Tracking 29892 objects as of 21-Nov-2024
HD Live streaming from Space Station
objects crossing your sky now

STARLINK-32227

Track STARLINK-32227 now!
10-day predictions
STARLINK-32227 is classified as:


NORAD ID: 60361
Int'l Code: 2024-138G
Perigee: 451.6 km
Apogee: 457.3 km
Inclination: 53.2 °
Period: 93.5 minutes
Semi major axis: 6825 km
RCS: Unknown
Launch date: August 4, 2024
Source: United States (US)
Launch site: AIR FORCE WESTERN TEST RANGE (AFWTR)
Your satellite tracking list
Your tracking list is empty




NASA's NSSDC Master Catalog

Two Line Element Set (TLE):
1 60361U 24138G   24326.10926358 -.00001944  00000-0 -38593-4 0  9997
2 60361  53.1567 351.9305 0004179 104.9339 255.2129 15.39589370 18084
Source of the keplerian elements: AFSPC